CW8508 Weather Reports


time (UTC)temp
C
wind
direction
speed
KPH
gust
KPH
rain 1hr
cm
rain 24hr
cm
rain mn
cm
humidity
%
barometer
mb
20210920060011 17 255 0.0 0.0 0.00 0.00 0.00 76 1012.1
20210920055511 17 255 0.0 0.0 0.00 0.00 0.00 76 1012.2
20210920055011 17 255 0.0 1.6 0.00 0.00 0.00 76 1012.2
20210920054511 17 255 0.0 1.6 0.00 0.00 0.00 76 1012.2
20210920054011 17 255 0.0 0.0 0.00 0.00 0.00 76 1012.2
20210920053510 17 255 0.0 0.0 0.00 0.00 0.00 76 1012.3
20210920053011 17 255 0.0 0.0 0.00 0.00 0.00 76 1012.3
20210920052510 17 255 0.0 0.0 0.00 0.00 0.00 76 1012.3
20210920052011 18 255 0.0 1.6 0.00 0.00 0.00 76 1012.3
20210920051511 18 255 0.0 1.6 0.00 0.00 0.00 76 1012.2
20210920051012 18 255 0.0 0.0 0.00 0.00 0.00 76 1012.2
20210920050511 18 255 0.0 0.0 0.00 0.00 0.00 75 1012.3
20210920050011 18 255 0.0 0.0 0.00 0.00 0.00 75 1012.3
20210920045511 18 255 0.0 1.6 0.00 0.00 0.00 75 1013.2
20210920045011 18 255 0.0 1.6 0.00 0.00 0.00 75 1013.2
20210920044511 18 248 0.0 0.0 0.00 0.00 0.00 74 1013.2
20210920044011 18 246 0.0 0.0 0.00 0.00 0.00 74 1013.2
20210920043511 18 246 0.0 0.0 0.00 0.00 0.00 74 1013.2
20210920043011 18 246 0.0 0.0 0.00 0.00 0.00 74 1013.2
20210920042511 18 246 0.0 0.0 0.00 0.00 0.00 73 1013.3
20210920042011 18 246 0.0 0.0 0.00 0.00 0.00 73 1013.4
20210920041511 18 246 0.0 0.0 0.00 0.00 0.00 72 1013.3
20210920041011 18 246 0.0 0.0 0.00 0.00 0.00 71 1013.2
20210920040511 18 246 0.0 0.0 0.00 0.00 0.00 70 1013.2
20210920040011 18 246 0.0 0.0 0.00 0.00 0.00 70 1013.1
20210920035511 18 246 0.0 0.0 0.00 0.00 0.00 71 1013.1
20210920035011 19 246 0.0 0.0 0.00 0.00 0.00 70 1013.1
20210920034511 19 246 0.0 0.0 0.00 0.00 0.00 69 1013.0
20210920034011 19 246 0.0 0.0 0.00 0.00 0.00 69 1013.0
20210920033511 19 246 0.0 0.0 0.00 0.00 0.00 70 1012.9
20210920033011 20 246 0.0 0.0 0.00 0.00 0.00 69 1012.9
20210920032511 20 246 0.0 0.0 0.00 0.00 0.00 68 1012.9
20210920032011 20 246 0.0 1.6 0.00 0.00 0.00 69 1012.9
20210920031511 20 246 0.0 1.6 0.00 0.00 0.00 69 1012.8
20210920031011 20 243 0.0 1.6 0.00 0.00 0.00 68 1012.8
20210920030511 21 243 0.0 3.2 0.00 0.00 0.00 65 1012.7
20210920030011 21 243 0.0 3.2 0.00 0.00 0.00 65 1012.7
20210920025511 21 243 1.6 1.6 0.00 0.00 0.00 63 1012.7
20210920025011 21 260 0.0 0.0 0.00 0.00 0.00 61 1012.7
20210920024511 22 260 0.0 0.0 0.00 0.00 0.00 60 1012.7
20210920024011 22 260 0.0 0.0 0.00 0.00 0.00 60 1012.7
20210920023511 22 260 0.0 0.0 0.00 0.00 0.00 62 1012.7
20210920023011 22 260 0.0 0.0 0.00 0.00 0.00 59 1012.6
20210920022511 22 260 0.0 3.2 0.00 0.00 0.00 56 1012.7
20210920022011 22 259 0.0 3.2 0.00 0.00 0.00 57 1012.6
20210920021511 23 271 1.6 1.6 0.00 0.00 0.00 55 1012.6
20210920021011 23 254 0.0 1.6 0.00 0.00 0.00 56 1012.6
20210920020511 23 268 0.0 1.6 0.00 0.00 0.00 55 1012.6
20210920020011 23 242 0.0 1.6 0.00 0.00 0.00 53 1012.6
20210920015511 23 259 0.0 4.8 0.00 0.00 0.00 53 1012.5
20210920015011 23 243 0.0 4.8 0.00 0.00 0.00 53 1012.6
20210920014511 23 250 0.0 4.8 0.00 0.00 0.00 53 1012.6
20210920014011 23 267 1.6 6.4 0.00 0.00 0.00 53 1012.6
20210920013511 23 284 0.0 6.4 0.00 0.00 0.00 52 1012.5
20210920013011 24 259 4.8 8.0 0.00 0.00 0.00 53 1012.5
20210920012511 24 271 1.6 8.0 0.00 0.00 0.00 53 1012.4
20210920012011 25 263 1.6 8.0 0.00 0.00 0.00 52 1012.5
20210920011511 25 238 8.0 9.7 0.00 0.00 0.00 52 1012.4
20210920011011 25 262 3.2 9.7 0.00 0.00 0.00 52 1012.5
20210920010511 25 264 4.8 8.0 0.00 0.00 0.00 52 1012.5
20210920010011 25 266 1.6 9.7 0.00 0.00 0.00 52 1012.4
20210920005511 25 263 3.2 9.7 0.00 0.00 0.00 52 1012.5
20210920005011 25 273 1.6 11.3 0.00 0.00 0.00 51 1012.4
20210920004511 26 259 6.4 12.9 0.00 0.00 0.00 51 1012.4
20210920004011 26 240 0.0 12.9 0.00 0.00 0.00 50 1012.4
20210920003511 26 277 4.8 9.7 0.00 0.00 0.00 49 1012.4
20210920003011 26 236 1.6 11.3 0.00 0.00 0.00 49 1012.3
20210920002511 27 227 6.4 16.1 0.00 0.00 0.00 48 1012.4
20210920002011 27 266 3.2 16.1 0.00 0.00 0.00 47 1012.3
20210920001511 27 248 9.7 12.9 0.00 0.00 0.00 46 1012.3
20210920001011 28 268 11.3 12.9 0.00 0.00 0.00 45 1012.4
20210920000511 28 289 3.2 12.9 0.00 0.00 0.00 45 1012.4
20210920000011 28 285 3.2 16.1 0.00 0.00 0.00 44 1012.4
20210919235511 28 258 9.7 16.1 0.00 0.00 0.00 44 1012.4
20210919235011 29 272 9.7 14.5 0.00 0.00 0.00 43 1012.5
20210919234511 29 244 1.6 14.5 0.00 0.00 0.00 42 1012.4
20210919234011 29 252 6.4 12.9 0.00 0.00 0.00 42 1012.4
20210919233511 30 261 6.4 12.9 0.00 0.00 0.00 41 1012.3
20210919233011 30 248 6.4 14.5 0.00 0.00 0.00 40 1012.4
20210919232511 30 265 3.2 14.5 0.00 0.00 0.00 39 1012.3
20210919232011 30 280 1.6 12.9 0.00 0.00 0.00 38 1012.3
20210919231511 30 284 0.0 12.9 0.00 0.00 0.00 37 1012.4
20210919231011 30 265 6.4 12.9 0.00 0.00 0.00 36 1012.4
20210919230511 30 282 4.8 11.3 0.00 0.00 0.00 36 1012.3
20210919230011 30 195 0.0 12.9 0.00 0.00 0.00 36 1012.5
20210919225511 30 227 0.0 12.9 0.00 0.00 0.00 36 1012.5
20210919225011 30 253 0.0 9.7 0.00 0.00 0.00 37 1012.6
20210919224511 30 246 1.6 12.9 0.00 0.00 0.00 36 1012.6
20210919224011 30 241 6.4 12.9 0.00 0.00 0.00 36 1012.6
20210919223511 30 220 6.4 11.3 0.00 0.00 0.00 37 1012.7
20210919223011 30 265 1.6 14.5 0.00 0.00 0.00 36 1012.8
20210919222511 30 250 4.8 19.3 0.00 0.00 0.00 36 1012.9
20210919222011 30 189 8.0 19.3 0.00 0.00 0.00 36 1013.0
20210919221511 30 224 19.3 14.5 0.00 0.00 0.00 37 1012.9
20210919221011 30 239 6.4 14.5 0.00 0.00 0.00 37 1013.0
20210919220511 30 249 0.0 12.9 0.00 0.00 0.00 37 1013.1
20210919220011 30 277 3.2 12.9 0.00 0.00 0.00 37 1013.1
20210919215511 29 246 11.3 12.9 0.00 0.00 0.00 39 1013.2
20210919215011 29 224 9.7 12.9 0.00 0.00 0.00 37 1013.3
20210919214511 29 240 4.8 14.5 0.00 0.00 0.00 37 1013.3
20210919214011 29 213 4.8 14.5 0.00 0.00 0.00 38 1013.4
20210919213511 28 202 4.8 11.3 0.00 0.00 0.00 38 1013.4
20210919213011 28 274 3.2 12.9 0.00 0.00 0.00 38 1013.5
20210919212511 28 201 4.8 12.9 0.00 0.00 0.00 37 1013.6
20210919212011 28 205 3.2 11.3 0.00 0.00 0.00 38 1013.7
20210919211511 28 219 1.6 12.9 0.00 0.00 0.00 38 1013.7
20210919211011 28 266 8.0 12.9 0.00 0.00 0.00 39 1013.9
20210919210511 28 234 1.6 14.5 0.00 0.00 0.00 38 1013.9
20210919210011 28 169 4.8 14.5 0.00 0.00 0.00 39 1014.0
20210919205511 28 239 3.2 9.7 0.00 0.00 0.00 39 1014.2
20210919205011 28 219 4.8 11.3 0.00 0.00 0.00 39 1014.2
20210919204511 28 188 1.6 11.3 0.00 0.00 0.00 38 1014.3
20210919204011 27 216 3.2 11.3 0.00 0.00 0.00 40 1014.4
20210919203511 27 234 8.0 11.3 0.00 0.00 0.00 40 1014.4
20210919203011 27 238 3.2 11.3 0.00 0.00 0.00 41 1014.6
20210919202511 27 271 6.4 11.3 0.00 0.00 0.00 42 1014.6
20210919202011 27 255 3.2 11.3 0.00 0.00 0.00 41 1014.6
20210919201512 27 258 9.7 9.7 0.00 0.00 0.00 43 1014.7
20210919201011 27 223 1.6 14.5 0.00 0.00 0.00 43 1014.8
20210919200511 26 238 8.0 14.5 0.00 0.00 0.00 42 1014.8
20210919200011 26 221 4.8 9.7 0.00 0.00 0.00 44 1014.9
20210919195511 26 273 1.6 16.1 0.00 0.00 0.00 46 1015.0
20210919195012 26 247 8.0 16.1 0.00 0.00 0.00 46 1014.9
20210919194511 26 242 3.2 11.3 0.00 0.00 0.00 48 1015.0
20210919194011 25 226 8.0 14.5 0.00 0.00 0.00 48 1015.2
20210919193511 25 256 4.8 14.5 0.00 0.00 0.00 49 1015.2
20210919193012 25 205 1.6 11.3 0.00 0.00 0.00 50 1015.2
20210919192511 25 246 3.2 11.3 0.00 0.00 0.00 51 1015.3
20210919192011 25 144 1.6 9.7 0.00 0.00 0.00 52 1015.4
20210919191511 24 219 3.2 9.7 0.00 0.00 0.00 52 1015.5
20210919191011 24 196 3.2 9.7 0.00 0.00 0.00 53 1015.5
20210919190511 24 168 3.2 6.4 0.00 0.00 0.00 55 1015.5
20210919190011 24 169 0.0 1.6 0.00 0.00 0.00 55 1015.6
20210919185511 23 169 0.0 0.0 0.00 0.00 0.00 55 1015.6
20210919185012 23 170 0.0 8.0 0.00 0.00 0.00 56 1015.7
20210919184511 23 171 0.0 8.0 0.00 0.00 0.00 57 1015.7
20210919184011 23 167 0.0 8.0 0.00 0.00 0.00 57 1015.7
20210919183511 23 175 0.0 6.4 0.00 0.00 0.00 57 1015.8
20210919183011 23 175 0.0 4.8 0.00 0.00 0.00 59 1016.0
20210919182511 23 175 0.0 4.8 0.00 0.00 0.00 59 1015.0
20210919182011 22 171 0.0 0.0 0.00 0.00 0.00 59 1015.0
20210919181511 22 184 0.0 0.0 0.00 0.00 0.00 59 1015.0
20210919181011 22 184 0.0 4.8 0.00 0.00 0.00 60 1015.2
20210919180511 22 183 0.0 9.7 0.00 0.00 0.00 61 1015.2
20210919180011 22 142 0.0 9.7 0.00 0.00 0.00 61 1015.2
20210919175511 22 137 0.0 8.0 0.00 0.00 0.00 62 1015.2
20210919175011 21 207 0.0 8.0 0.00 0.00 0.00 62 1015.3
20210919174511 21 211 0.0 8.0 0.00 0.00 0.00 63 1015.4
20210919174011 21 148 0.0 0.0 0.00 0.00 0.00 63 1015.4
20210919173511 21 148 0.0 0.0 0.00 0.00 0.00 64 1015.4
20210919173012 21 148 0.0 0.0 0.00 0.00 0.00 65 1015.4
20210919172511 21 146 0.0 8.0 0.00 0.00 0.00 65 1015.5
20210919172011 21 147 0.0 8.0 0.00 0.00 0.00 66 1015.5
20210919171511 21 149 0.0 9.7 0.00 0.00 0.00 65 1015.5
20210919171011 20 151 0.0 9.7 0.00 0.00 0.00 65 1015.6
20210919170511 20 151 0.0 9.7 0.00 0.00 0.00 67 1015.7
20210919170011 20 179 0.0 4.8 0.00 0.00 0.00 66 1015.7
20210919165511 20 202 1.6 4.8 0.00 0.00 0.00 67 1015.6
20210919165011 20 225 0.0 4.8 0.00 0.00 0.00 66 1015.6
20210919164511 20 232 0.0 0.0 0.00 0.00 0.00 66 1015.6
20210919164011 20 230 0.0 0.0 0.00 0.00 0.00 67 1015.7
20210919163511 19 231 0.0 0.0 0.00 0.00 0.00 67 1015.8
20210919163011 19 231 0.0 0.0 0.00 0.00 0.00 68 1015.8
20210919162510 19 264 0.0 0.0 0.00 0.00 0.00 68 1015.8
20210919162010 18 264 0.0 0.0 0.00 0.00 0.00 69 1015.8
20210919161510 18 264 0.0 0.0 0.00 0.00 0.00 69 1015.8
20210919161010 18 264 0.0 0.0 0.00 0.00 0.00 70 1015.8
20210919160510 18 264 0.0 0.0 0.00 0.00 0.00 71 1015.7
20210919160010 18 266 0.0 0.0 0.00 0.00 0.00 71 1015.7
20210919155510 18 266 0.0 0.0 0.00 0.00 0.00 71 1015.6
20210919155010 18 277 0.0 0.0 0.00 0.00 0.00 71 1015.6
20210919154510 17 277 0.0 0.0 0.00 0.00 0.00 72 1015.6
20210919154010 17 277 0.0 0.0 0.00 0.00 0.00 72 1015.6
20210919153510 17 277 0.0 0.0 0.00 0.00 0.00 73 1015.6
20210919153010 17 277 0.0 0.0 0.00 0.00 0.00 75 1015.5
20210919152510 16 277 0.0 0.0 0.00 0.00 0.00 77 1015.4
20210919152010 16 277 0.0 0.0 0.00 0.00 0.00 78 1015.4
20210919151511 16 277 0.0 0.0 0.00 0.00 0.00 81 1015.4
20210919151010 15 278 0.0 0.0 0.00 0.00 0.00 82 1015.4
20210919150510 15 277 0.0 0.0 0.00 0.00 0.00 81 1015.4
20210919150010 14 277 0.0 0.0 0.00 0.00 0.00 81 1015.4
20210919145510 13 277 0.0 0.0 0.00 0.00 0.00 82 1015.4
20210919145010 13 277 0.0 0.0 0.00 0.00 0.00 81 1015.4
20210919144510 13 277 0.0 0.0 0.00 0.00 0.00 82 1015.3
20210919144010 13 277 0.0 0.0 0.00 0.00 0.00 82 1015.3
20210919143511 12 277 0.0 0.0 0.00 0.00 0.00 82 1015.2
20210919143011 12 277 0.0 0.0 0.00 0.00 0.00 82 1015.2
20210919142510 12 277 0.0 0.0 0.00 0.00 0.00 82 1015.1
20210919142011 12 277 0.0 0.0 0.00 0.00 0.00 82 1015.1
20210919141510 12 277 0.0 0.0 0.00 0.00 0.00 83 1015.2
20210919141010 12 276 0.0 0.0 0.00 0.00 0.00 83 1015.1
20210919140510 12 276 0.0 0.0 0.00 0.00 0.00 83 1015.0
20210919140010 12 277 0.0 0.0 0.00 0.00 0.00 83 1014.9
20210919135510 12 277 0.0 0.0 0.00 0.00 0.00 82 1014.9
20210919135011 12 277 0.0 0.0 0.00 0.00 0.00 82 1014.9
20210919134510 12 277 0.0 0.0 0.00 0.00 0.00 82 1014.9
20210919134010 12 277 0.0 0.0 0.00 0.00 0.00 82 1014.9
20210919133511 12 276 0.0 0.0 0.00 0.00 0.00 82 1015.0
20210919133010 12 277 0.0 0.0 0.00 0.00 0.00 82 1015.0
20210919132510 12 277 0.0 0.0 0.00 0.00 0.00 82 1014.9
20210919132011 12 277 0.0 0.0 0.00 0.00 0.00 82 1014.9
20210919131510 12 277 0.0 0.0 0.00 0.00 0.00 82 1014.8
20210919131010 12 276 0.0 0.0 0.00 0.00 0.00 82 1014.8
20210919130510 12 277 0.0 0.0 0.00 0.00 0.00 82 1014.8
20210919130010 12 277 0.0 0.0 0.00 0.00 0.00 82 1014.9
20210919125511 12 277 0.0 0.0 0.00 0.00 0.00 81 1014.9
20210919125010 12 277 0.0 0.0 0.00 0.00 0.00 82 1014.8
20210919124510 12 277 0.0 0.0 0.00 0.00 0.00 82 1014.7
20210919124010 12 277 0.0 0.0 0.00 0.00 0.00 82 1014.6
20210919123510 12 277 0.0 0.0 0.00 0.00 0.00 82 1014.6
20210919123010 12 277 0.0 0.0 0.00 0.00 0.00 82 1014.6
20210919122510 12 277 0.0 0.0 0.00 0.00 0.00 82 1014.6
20210919122010 12 276 0.0 0.0 0.00 0.00 0.00 82 1014.6
20210919121510 12 276 0.0 0.0 0.00 0.00 0.00 82 1014.5
20210919121011 12 276 0.0 0.0 0.00 0.00 0.00 82 1014.4
20210919120510 12 261 0.0 0.0 0.00 0.00 0.00 82 1014.3
20210919120011 12 261 0.0 0.0 0.00 0.00 0.00 83 1014.3
20210919115511 12 261 0.0 0.0 0.00 0.00 0.00 83 1014.2
20210919115010 12 261 0.0 0.0 0.00 0.00 0.00 84 1014.2
20210919114510 12 261 0.0 0.0 0.00 0.00 0.00 84 1014.2
20210919114011 12 261 0.0 0.0 0.00 0.00 0.00 84 1014.2
20210919113510 12 261 0.0 0.0 0.00 0.00 0.00 85 1014.3
20210919113011 12 261 0.0 0.0 0.00 0.00 0.00 85 1014.3
20210919112511 12 261 0.0 0.0 0.00 0.00 0.00 85 1014.3
20210919112010 12 261 0.0 0.0 0.00 0.00 0.00 85 1014.3
20210919111511 12 261 0.0 0.0 0.00 0.00 0.00 85 1014.3
20210919111010 12 261 0.0 0.0 0.00 0.00 0.00 85 1014.3
20210919110510 13 261 0.0 0.0 0.00 0.00 0.00 85 1014.3
20210919110010 13 261 0.0 0.0 0.00 0.00 0.00 85 1014.2
20210919105511 13 261 0.0 0.0 0.00 0.00 0.00 85 1014.2
20210919105010 13 261 0.0 0.0 0.00 0.00 0.00 85 1014.2
20210919104511 13 261 0.0 0.0 0.00 0.00 0.00 85 1014.3
20210919104010 13 261 0.0 0.0 0.00 0.00 0.00 85 1014.4
20210919103510 13 261 0.0 0.0 0.00 0.00 0.00 85 1014.4
20210919103010 13 261 0.0 0.0 0.00 0.00 0.00 85 1014.4
20210919102510 13 261 0.0 0.0 0.00 0.00 0.00 85 1014.4
20210919102010 13 261 0.0 0.0 0.00 0.00 0.00 85 1014.5
20210919101511 13 261 0.0 0.0 0.00 0.00 0.00 85 1014.6
20210919101010 13 261 0.0 0.0 0.00 0.00 0.00 85 1014.6
20210919100510 13 261 0.0 0.0 0.00 0.00 0.00 85 1014.6
20210919100010 13 261 0.0 0.0 0.00 0.00 0.00 85 1014.7
20210919095510 13 261 0.0 0.0 0.00 0.00 0.00 85 1014.6
20210919095011 13 261 0.0 0.0 0.00 0.00 0.00 85 1014.7
20210919094511 13 261 0.0 0.0 0.00 0.00 0.00 85 1014.7
20210919094010 13 261 0.0 0.0 0.00 0.00 0.00 85 1014.8
20210919093510 13 261 0.0 0.0 0.00 0.00 0.00 85 1014.9
20210919093011 13 261 0.0 0.0 0.00 0.00 0.00 85 1014.9
20210919092510 13 261 0.0 0.0 0.00 0.00 0.00 85 1014.8
20210919092010 13 261 0.0 0.0 0.00 0.00 0.00 86 1015.0
20210919091511 13 261 0.0 0.0 0.00 0.00 0.00 86 1016.0
20210919091010 14 261 0.0 0.0 0.00 0.00 0.00 86 1016.0
20210919090510 14 261 0.0 0.0 0.00 0.00 0.00 85 1016.0
20210919090010 14 261 0.0 0.0 0.00 0.00 0.00 85 1016.0
20210919085511 14 261 0.0 0.0 0.00 0.00 0.00 85 1015.9
20210919085010 14 261 0.0 0.0 0.00 0.00 0.00 85 1016.0
20210919084510 14 261 0.0 0.0 0.00 0.00 0.00 84 1016.0
20210919084010 14 261 0.0 0.0 0.00 0.00 0.00 84 1016.1
20210919083510 14 261 0.0 0.0 0.00 0.00 0.00 84 1016.2
20210919083011 14 261 0.0 0.0 0.00 0.00 0.00 84 1016.3
20210919082511 14 261 0.0 0.0 0.00 0.00 0.00 84 1016.3
20210919082011 14 261 0.0 0.0 0.00 0.00 0.00 84 1016.3
20210919081511 14 261 0.0 0.0 0.00 0.00 0.00 83 1016.3
20210919081011 14 261 0.0 0.0 0.00 0.00 0.00 83 1016.3
20210919080511 14 261 0.0 0.0 0.00 0.00 0.00 83 1016.3
20210919080010 14 261 0.0 0.0 0.00 0.00 0.00 83 1016.3
20210919075511 14 261 0.0 0.0 0.00 0.00 0.00 83 1016.3
20210919075011 14 261 0.0 0.0 0.00 0.00 0.00 83 1016.4
20210919074510 14 261 0.0 0.0 0.00 0.00 0.00 83 1016.4
20210919074011 14 261 0.0 0.0 0.00 0.00 0.00 83 1016.5
20210919073511 15 261 0.0 0.0 0.00 0.00 0.00 82 1016.5
20210919073010 15 261 0.0 0.0 0.00 0.00 0.00 82 1016.4
20210919072510 15 261 0.0 0.0 0.00 0.00 0.00 83 1016.3
20210919072011 15 261 0.0 0.0 0.00 0.00 0.00 83 1016.4
20210919071512 15 261 0.0 0.0 0.00 0.00 0.00 82 1016.3
20210919071010 15 261 0.0 0.0 0.00 0.00 0.00 82 1016.3
20210919070511 15 261 0.0 0.0 0.00 0.00 0.00 82 1016.4
20210919070010 15 261 0.0 0.0 0.00 0.00 0.00 81 1016.4
20210919065511 15 261 0.0 0.0 0.00 0.00 0.00 81 1016.3
20210919065010 15 261 0.0 0.0 0.00 0.00 0.00 81 1016.3
20210919064511 15 261 0.0 0.0 0.00 0.00 0.00 80 1016.4
20210919064011 15 261 0.0 0.0 0.00 0.00 0.00 80 1016.5
20210919063510 15 261 0.0 0.0 0.00 0.00 0.00 80 1016.4
20210919063010 15 261 0.0 0.0 0.00 0.00 0.00 80 1016.5
20210919062510 15 261 0.0 0.0 0.00 0.00 0.00 79 1016.6
20210919062011 15 261 0.0 0.0 0.00 0.00 0.00 79 1016.6
20210919061510 15 261 0.0 0.0 0.00 0.00 0.00 79 1016.6
20210919061010 15 261 0.0 0.0 0.00 0.00 0.00 78 1016.6
20210919060510 15 261 0.0 0.0 0.00 0.00 0.00 78 1016.7